[[{"header":{"parameterUnit":"m.s-1","parameterCategory":1,"la1":30.2991,"la2":30.254,"lo1":-89.0895,"lo2":-89.0444,"dy":0.0017,"dx":0.0017,"nx":28,"ny":28,"refTime":"2023-10-31T21:00:00:Z","depth":0,"parameterNumber":2,"parameterNumberName":"U-component_of_WINDS"},"data":[0,0,0,0,0,0,0,0,0,0,0,0,0,0,0,0,0,0,0,0,0,0,0,0,0,0,0,0,0,0,0,0,0,0,0,0,0,0,0,0,0,0,0,0,0,0,0,0,0,0,0,0,0,0,0,0,0,0,-3.3712,-3.3712,0,-3.368,-3.3679,-3.3679,-3.3544,-3.3541,-3.3538,-3.3535,-3.3507,-3.3509,-3.3511,0,0,0,0,0,0,0,0,0,0,0,0,0,-3.3662,-3.3664,-3.3712,-3.3712,-3.3711,-3.368,-3.3679,-3.3679,-3.3545,-3.3541,-3.3537,-3.3534,-3.3506,-3.3508,-3.3511,0,0,0,0,0,0,0,0,0,0,0,0,0,-3.3662,-3.3664,-3.3712,-3.364,-3.3634,-3.368,-3.3679,-3.3679,-3.3546,-3.3541,-3.3536,-3.3532,-3.3505,-3.3508,-3.3511,-3.3625,0,0,-3.3521,-3.3523,0,0,0,0,0,0,0,0,-3.3663,-3.3664,-3.3651,-3.3645,-3.3638,-3.3611,-3.3651,-3.3661,-3.3547,-3.3579,-3.3535,-3.353,-3.3545,-3.3545,-3.3549,-3.3624,-3.3623,-3.3522,-3.3523,-3.3525,-3.3526,0,0,0,0,0,0,0,-3.3663,-3.3665,-3.3699,-3.3651,-3.3643,-3.3611,-3.3606,-3.3652,-3.3589,-3.3576,-3.3566,-3.3564,-3.3541,-3.3547,-3.3548,-3.3622,-3.3521,-3.3524,-3.3526,-3.3528,-3.3791,-3.3796,0,0,0,0,0,0,-3.3672,-3.3666,-3.37,-3.3698,-3.3639,-3.3616,-3.361,-3.3625,-3.3588,-3.3578,-3.3568,-3.3558,-3.3543,-3.3544,-3.3546,-3.3679,-3.3525,-3.3528,-3.353,-3.3786,-3.3792,-3.3798,0,0,0,0,0,0,-3.3672,-3.3677,-3.3701,-3.3679,-3.368,-3.3622,-3.3639,-3.3626,-3.3632,-3.3582,-3.3571,-3.3585,-3.354,-3.3542,-3.3607,-3.3676,-3.3529,-3.3532,-3.378,-3.3788,-3.3795,-3.3945,0,0,0,0,0,0,-3.3671,-3.3677,-3.3719,-3.3681,-3.3682,-3.3762,-3.3643,-3.3629,-3.3637,-3.3624,-3.3595,-3.3586,-3.3536,-3.3603,-3.361,-3.3678,-3.3535,-3.3774,-3.3784,-3.3793,-3.3934,-3.3957,-3.3976,0,0,0,0,0,-3.3669,-3.3763,-3.3722,-3.3726,-3.3732,-3.3766,-3.3766,-3.3706,-3.3643,-3.3686,-3.3654,-3.3587,-3.3667,-3.3611,-3.3618,-3.3688,-3.3769,-3.3781,-3.3792,-3.3924,-3.3952,-3.3976,0,0,0,0,0,0,-3.3811,-3.3757,-3.371,-3.3794,-3.3786,-3.3743,-3.3794,-3.3737,-3.3747,-3.3735,-3.366,-3.3655,-3.3732,-3.3715,-3.3654,-3.3797,-3.3707,-3.372,-3.3805,-3.3831,-3.3852,-3.3856,-3.3538,0,0,0,0,0,-3.3852,-3.3882,-3.3833,-3.3912,-3.391,-3.3854,-3.3866,-3.382,-3.3809,-3.3805,-3.3777,-3.3771,-3.3794,-3.3811,-3.383,-3.393,-3.3923,-3.3982,-3.4003,-3.4021,-3.4034,-3.4088,-3.4114,-3.3835,-3.3835,-3.3835,0,0,-3.3937,-3.3911,-3.3935,-3.394,-3.3928,-3.3963,-3.3851,-3.3892,-3.3918,-3.3811,-3.3871,-3.3852,-3.3839,-3.3923,-3.3958,-3.3912,-3.411,-3.4036,-3.405,-3.4053,-3.4102,-3.4129,-3.4153,-3.3843,-3.3841,-3.384,0,0,-3.411,-3.4093,-3.4157,-3.4147,-3.413,-3.4092,-3.4108,-3.4074,-3.4056,-3.4115,-3.4036,-3.4066,-3.4108,-3.4103,-3.4106,-3.4278,-3.4218,-3.4286,-3.4399,-3.4453,-3.4475,-3.4494,-3.4558,-3.4581,-3.4299,-3.4299,-3.43,0,-3.4219,-3.4266,-3.4198,-3.4244,-3.425,-3.4153,-3.4219,-3.4213,-3.4204,-3.4211,-3.4159,-3.421,-3.4195,-3.4277,-3.4319,-3.4324,-3.4341,-3.429,-3.4477,-3.4495,-3.4512,-3.4572,-3.4596,-3.4308,-3.4307,-3.4306,-3.4305,0,-3.4402,-3.4436,-3.4491,-3.4483,-3.4495,-3.4551,-3.4492,-3.4512,-3.4466,-3.4434,-3.4496,-3.4474,-3.4488,-3.4503,-3.4458,-3.458,-3.4552,-3.4489,-3.4398,-3.4549,-3.4604,-3.4626,-3.432,-3.4317,-3.4315,-3.4313,0,0,-3.4664,-3.4618,-3.4639,-3.4635,-3.461,-3.4636,-3.4689,-3.4701,-3.4721,-3.4718,-3.4762,-3.4799,-3.4741,-3.4745,-3.4698,-3.4745,-3.4886,-3.4677,-3.4675,-3.4718,-3.5022,-3.5071,-3.5098,-3.4845,-3.4849,-3.4852,-3.5023,0,-3.4831,-3.4917,-3.4857,-3.4954,-3.4986,-3.4895,-3.4941,-3.4932,-3.4904,-3.4928,-3.4897,-3.4926,-3.4846,-3.4848,-3.489,-3.486,-3.4946,-3.4847,-3.4888,-3.489,-3.4896,-3.5126,-3.5178,-3.534,-3.5044,-3.5048,-3.505,0,-3.5037,-3.5042,-3.5143,-3.5112,-3.5123,-3.5165,-3.5172,-3.5196,-3.5185,-3.5161,-3.5165,-3.5107,-3.5159,-3.5067,-3.5139,-3.5072,-3.5085,-3.5074,-3.5078,-3.5082,-3.4981,-3.5139,-3.539,-3.5416,-3.5083,-3.5081,-3.5078,0,-3.5221,-3.5253,-3.5318,-3.5317,-3.5282,-3.5315,-3.5302,-3.5285,-3.5296,-3.5303,-3.531,-3.5323,-3.5331,-3.5344,-3.5292,-3.5229,-3.5371,-3.5274,-3.5355,-3.5357,-3.5391,-3.539,-3.5651,-3.5396,-3.5396,-3.5395,-3.5395,0,-3.5415,-3.548,-3.54,-3.5441,-3.5512,-3.5443,-3.5516,-3.5493,-3.548,-3.5515,-3.5437,-3.5472,-3.54,-3.5429,-3.5389,-3.5455,-3.5459,-3.5443,-3.5432,-3.5451,-3.5454,-3.5461,-3.5449,-3.5401,-3.54,-3.5399,-3.5398,0,-3.5633,-3.5582,-3.5647,-3.5608,-3.56,-3.5655,-3.5622,-3.5659,-3.5625,-3.5671,-3.5678,-3.5626,-3.5656,-3.5605,-3.5628,-3.5601,-3.5695,-3.5665,-3.5699,-3.5692,-3.5776,-3.577,-3.6053,-3.6087,-3.5808,-3.5811,-3.5813,0,-3.5761,-3.581,-3.5776,-3.5794,-3.5785,-3.5814,-3.5826,-3.576,-3.5775,-3.5766,-3.5805,-3.5827,-3.5843,-3.5895,-3.5861,-3.5879,-3.5851,-3.5948,-3.5853,-3.5872,-3.5855,-3.5854,-3.586,-3.5969,-3.5972,-3.5975,-3.5977,0,-3.5995,-3.5967,-3.5986,-3.5997,-3.6012,-3.6017,-3.6017,-3.6037,-3.5967,-3.5989,-3.6018,-3.603,-3.6054,-3.6079,-3.6089,-3.6077,-3.6018,-3.6007,-3.6027,-3.6049,-3.6068,-3.6061,-3.5755,-3.6002,-3.5999,-3.5997,-3.5996,-3.5995,-3.6174,-3.6213,-3.6196,-3.622,-3.6212,-3.6215,-3.6247,-3.6218,-3.624,-3.6254,-3.6214,-3.6253,-3.6241,-3.6248,-3.6244,-3.6275,-3.6232,-3.626,-3.6268,-3.6277,-3.6291,-3.6061,-3.6276,-3.6275,-3.6274,-3.6274,-3.6273,0,-3.6405,-3.639,-3.6412,-3.6414,-3.6434,-3.6373,-3.637,-3.6391,-3.6426,-3.6419,-3.6436,-3.6471,-3.6495,-3.6462,-3.6481,-3.6512,-3.6486,-3.652,-3.6518,-3.6517,-3.6327,-3.6309,-3.6541,-3.6541,-3.6541,-3.6541,-3.6541,-3.6541,-3.6528,-3.6592,-3.6563,-3.6623,-3.6607,-3.6644,-3.6648,-3.665,-3.6645,-3.6687,-3.6706,-3.6683,-3.6667,-3.6685,-3.6705,-3.6695,-3.6707,-3.6751,-3.6732,-3.6556,-3.653,-3.6505,-3.6488,-3.6754,-3.6754,-3.6919,-3.6921,-3.6922]},{"header":{"parameterUnit":"m.s-1","parameterCategory":1,"la1":30.2991,"la2":30.254,"lo1":-89.0895,"lo2":-89.0444,"dy":0.0017,"dx":0.0017,"nx":28,"ny":28,"refTime":"2023-10-31T21:00:00:Z","depth":0,"parameterNumber":3,"parameterNumberName":"V-component_of_WINDS"},"data":[0,0,0,0,0,0,0,0,0,0,0,0,0,0,0,0,0,0,0,0,0,0,0,0,0,0,0,0,0,0,0,0,0,0,0,0,0,0,0,0,0,0,0,0,0,0,0,0,0,0,0,0,0,0,0,0,0,0,-0.8101,-0.8102,0,-0.8184,-0.8185,-0.8186,-0.8198,-0.8197,-0.8196,-0.8195,-0.8282,-0.8285,-0.8288,0,0,0,0,0,0,0,0,0,0,0,0,0,-0.7953,-0.7956,-0.8101,-0.8102,-0.8103,-0.8184,-0.8185,-0.8186,-0.8198,-0.8197,-0.8196,-0.8195,-0.8281,-0.8285,-0.8288,0,0,0,0,0,0,0,0,0,0,0,0,0,-0.8025,-0.7957,-0.8101,-0.8118,-0.8121,-0.8183,-0.8185,-0.8186,-0.8198,-0.8197,-0.8196,-0.8194,-0.828,-0.8284,-0.8289,-0.834,0,0,-0.8303,-0.8305,0,0,0,0,0,0,0,0,-0.8021,-0.803,-0.8115,-0.8117,-0.812,-0.8179,-0.8165,-0.8238,-0.8198,-0.8169,-0.8195,-0.8194,-0.8249,-0.8256,-0.8274,-0.8344,-0.8348,-0.8303,-0.8306,-0.8308,-0.8309,0,0,0,0,0,0,0,-0.8016,-0.8027,-0.8134,-0.8116,-0.8119,-0.8122,-0.8131,-0.8179,-0.8214,-0.8171,-0.8172,-0.8182,-0.825,-0.827,-0.8276,-0.8349,-0.8303,-0.8307,-0.831,-0.8312,-0.8466,-0.8467,0,0,0,0,0,0,-0.8007,-0.8023,-0.8131,-0.8136,-0.8066,-0.8126,-0.8136,-0.8161,-0.8214,-0.8221,-0.8183,-0.8182,-0.8263,-0.8271,-0.8279,-0.8343,-0.8308,-0.8312,-0.8315,-0.8464,-0.8466,-0.8467,0,0,0,0,0,0,-0.8004,-0.8017,-0.8128,-0.808,-0.8094,-0.813,-0.8158,-0.8164,-0.8183,-0.8223,-0.8229,-0.8196,-0.8262,-0.8273,-0.8325,-0.8347,-0.8314,-0.8318,-0.8463,-0.8465,-0.8467,-0.8471,0,0,0,0,0,0,-0.8,-0.8016,-0.8036,-0.808,-0.8096,-0.8172,-0.8159,-0.8166,-0.8191,-0.8191,-0.8237,-0.8243,-0.8262,-0.8318,-0.8329,-0.8352,-0.8322,-0.8461,-0.8464,-0.8466,-0.847,-0.8473,-0.8477,0,0,0,0,0,-0.7995,-0.8034,-0.8036,-0.8049,-0.8122,-0.8173,-0.8182,-0.8202,-0.8192,-0.8213,-0.8238,-0.8242,-0.8342,-0.8323,-0.8336,-0.8361,-0.846,-0.8463,-0.8466,-0.8468,-0.8473,-0.8477,0,0,0,0,0,0,-0.7992,-0.804,-0.8044,-0.8098,-0.8131,-0.8175,-0.8201,-0.8207,-0.8244,-0.8242,-0.8266,-0.8276,-0.8327,-0.8349,-0.8327,-0.8413,-0.84,-0.8406,-0.8397,-0.8402,-0.8405,-0.84,-0.8326,0,0,0,0,0,-0.7998,-0.8034,-0.8075,-0.8119,-0.8135,-0.8165,-0.8188,-0.82,-0.8236,-0.825,-0.8279,-0.8314,-0.8353,-0.8378,-0.8417,-0.8472,-0.8483,-0.8495,-0.8499,-0.8501,-0.8507,-0.8538,-0.8544,-0.8477,-0.8477,-0.8477,0,0,-0.801,-0.8041,-0.8063,-0.8119,-0.8146,-0.8185,-0.8177,-0.8218,-0.8246,-0.8257,-0.8307,-0.833,-0.837,-0.8424,-0.8449,-0.8443,-0.8527,-0.8505,-0.8507,-0.8511,-0.8542,-0.8548,-0.8554,-0.8479,-0.8479,-0.8479,0,0,-0.8053,-0.8079,-0.812,-0.8146,-0.8187,-0.8206,-0.8215,-0.8258,-0.8273,-0.8324,-0.8332,-0.8366,-0.8433,-0.8462,-0.8485,-0.8536,-0.8542,-0.8548,-0.8567,-0.8598,-0.8603,-0.8608,-0.8627,-0.8633,-0.8553,-0.8553,-0.8553,0,-0.8064,-0.8121,-0.814,-0.818,-0.8205,-0.8214,-0.8255,-0.828,-0.8332,-0.8349,-0.8341,-0.8425,-0.8453,-0.8514,-0.8526,-0.8544,-0.8556,-0.8544,-0.86,-0.8605,-0.861,-0.8629,-0.8636,-0.8553,-0.8553,-0.8553,-0.8553,0,-0.8132,-0.8172,-0.8199,-0.8248,-0.8275,-0.8316,-0.8341,-0.8367,-0.8376,-0.8396,-0.8448,-0.8481,-0.8526,-0.8541,-0.8551,-0.8603,-0.8599,-0.8595,-0.8583,-0.8617,-0.8635,-0.8642,-0.8554,-0.8554,-0.8554,-0.8554,0,0,-0.8178,-0.8235,-0.8245,-0.8267,-0.8311,-0.8343,-0.8383,-0.8426,-0.8448,-0.8483,-0.8518,-0.8573,-0.8571,-0.8597,-0.861,-0.8636,-0.8675,-0.863,-0.8631,-0.8638,-0.8736,-0.8739,-0.8747,-0.8678,-0.868,-0.8681,-0.8733,0,-0.8227,-0.8299,-0.8316,-0.8379,-0.8416,-0.8424,-0.846,-0.8491,-0.851,-0.8545,-0.8566,-0.8606,-0.8598,-0.8614,-0.864,-0.8665,-0.8696,-0.8661,-0.8712,-0.8714,-0.8704,-0.8756,-0.876,-0.8807,-0.874,-0.8741,-0.8742,0,-0.8294,-0.8329,-0.8395,-0.8434,-0.845,-0.8482,-0.8522,-0.8555,-0.859,-0.8602,-0.8631,-0.8641,-0.8684,-0.8667,-0.8727,-0.8703,-0.8725,-0.874,-0.8742,-0.8749,-0.8731,-0.8766,-0.8823,-0.8831,-0.8753,-0.8752,-0.8751,0,-0.8322,-0.8385,-0.8433,-0.8451,-0.8498,-0.852,-0.854,-0.8575,-0.8599,-0.8635,-0.8651,-0.8691,-0.8714,-0.8745,-0.8765,-0.8751,-0.8824,-0.8809,-0.8836,-0.8835,-0.8852,-0.8851,-0.8915,-0.8863,-0.8863,-0.8863,-0.8863,0,-0.8375,-0.8416,-0.8446,-0.8476,-0.8521,-0.854,-0.8584,-0.8605,-0.8635,-0.8669,-0.8678,-0.871,-0.8734,-0.8769,-0.8785,-0.8833,-0.8842,-0.8854,-0.8858,-0.8854,-0.8853,-0.887,-0.8868,-0.8865,-0.8865,-0.8864,-0.8864,0,-0.8415,-0.8437,-0.849,-0.8529,-0.854,-0.8571,-0.8605,-0.8634,-0.8653,-0.8695,-0.8707,-0.8736,-0.8778,-0.8801,-0.8853,-0.8864,-0.8918,-0.8919,-0.8906,-0.8908,-0.8934,-0.8931,-0.9012,-0.9024,-0.8963,-0.8963,-0.8964,0,-0.8449,-0.848,-0.8522,-0.8545,-0.8566,-0.8603,-0.8628,-0.8647,-0.8673,-0.8715,-0.8739,-0.878,-0.8815,-0.8881,-0.8908,-0.8948,-0.8952,-0.8977,-0.8958,-0.8953,-0.8954,-0.8952,-0.8956,-0.8981,-0.8982,-0.8982,-0.8983,0,-0.8507,-0.8515,-0.8551,-0.859,-0.8619,-0.8651,-0.8682,-0.87,-0.8725,-0.8753,-0.8796,-0.8822,-0.8875,-0.8917,-0.8959,-0.8981,-0.8986,-0.8988,-0.8997,-0.8994,-0.8985,-0.8991,-0.8916,-0.8987,-0.8986,-0.8986,-0.8986,-0.8986,-0.8545,-0.8573,-0.8607,-0.8646,-0.8671,-0.87,-0.8729,-0.8751,-0.8786,-0.8831,-0.884,-0.8884,-0.8919,-0.8975,-0.8998,-0.9033,-0.9029,-0.9041,-0.9044,-0.9047,-0.9049,-0.8978,-0.9041,-0.9041,-0.9041,-0.9041,-0.9041,0,-0.8605,-0.8626,-0.8662,-0.8705,-0.8735,-0.8736,-0.8771,-0.8797,-0.8836,-0.8866,-0.89,-0.8948,-0.8989,-0.9018,-0.9059,-0.9082,-0.9085,-0.9092,-0.9091,-0.9096,-0.905,-0.9039,-0.9088,-0.9088,-0.9088,-0.9088,-0.9088,-0.9088,-0.8639,-0.8687,-0.8699,-0.8759,-0.8781,-0.8824,-0.8844,-0.8871,-0.8895,-0.8949,-0.8982,-0.9,-0.903,-0.9073,-0.911,-0.9118,-0.9133,-0.914,-0.9148,-0.9104,-0.9099,-0.9095,-0.9085,-0.9142,-0.9143,-0.9191,-0.9192,-0.9192]}]]